Northeast Philadelphia, PA

7:52 AM EDT on October 15, 2019 (GMT -0400)
Northeast Philadelphia

Weather History for KPNE - August, 2019

Change the Weather History Date:

Thursday, August 1, 2019

  Actual Average Record
Temperature  
Mean Temperature 80 °F -  
Max Temperature 90 °F 83 °F 98 °F (1999)
Min Temperature 72 °F 65 °F 57 °F (1998)
Cooling Degree Days 16    
Growing Degree Days 30 (Base 50)    
Moisture  
Dew Point 66 °F    
Average Humidity 66    
Maximum Humidity 87    
Minimum Humidity 40    
Precipitation  
Precipitation 0.00 in - - ()
Sea Level Pressure  
Sea Level Pressure 30.09 in    
Wind  
Wind Speed 3 mph (East)    
Max Wind Speed 10 mph    
Max Gust Speed 16 mph    
Visibility 10 miles    
Events Thunderstorm    
Averages and records for this station are not official NWS values.
T = Trace of Precipitation, MM = Missing Value Source: NWS Daily Summary

Daily Weather History Graph

Daily Weather History Graph

Search for Another Location

Airport or City:

Astronomy

Aug. 01, 2019 Rise Set
Actual Time 5:58 AM EDT 8:14 PM EDT
Civil Twilight 5:27 AM EDT 8:44 PM EDT
Nautical Twilight 4:50 AM EDT 9:21 PM EDT
Astronomical Twilight 4:09 AM EDT 10:02 PM EDT
Moon 6:19 AM EDT (8/1) 8:59 PM EDT (8/1)
Length of Visible Light 15h 16m
Length of Day
14h 16m
New Moon, 0% of the Moon is Illuminated
Aug 1
New Moon
Aug 7
First Quarter
Aug 15
Full
Aug 23
Last Quarter
Aug 30
New

Hourly Weather History & Observations

Time (EDT) Temp. Heat Index Dew Point Humidity Pressure Visibility Wind Dir Wind Speed Gust Speed Precip Events Conditions
12:09 AM 75.0 °F - 68.0 °F 79% 30.07 in 10.0 mi Calm Calm - N/A   Mostly Cloudy
12:54 AM 73.9 °F - 69.1 °F 85% 30.07 in 10.0 mi Calm Calm - N/A   Overcast
1:54 AM 73.9 °F - 68.0 °F 82% 30.06 in 10.0 mi Calm Calm - N/A   Overcast
2:54 AM 73.0 °F - 68.0 °F 84% 30.06 in 10.0 mi Calm Calm - N/A   Clear
3:54 AM 72.0 °F - 68.0 °F 87% 30.05 in 10.0 mi Calm Calm - N/A   Clear
4:54 AM 72.0 °F - 68.0 °F 87% 30.05 in 10.0 mi North 3.5 mph - N/A   Clear
5:54 AM 72.0 °F - 66.9 °F 84% 30.06 in 10.0 mi NNE 4.6 mph - N/A   Clear
6:54 AM 72.0 °F - 66.9 °F 84% 30.08 in 10.0 mi NE 3.5 mph - N/A   Clear
7:54 AM 75.0 °F - 66.0 °F 73% 30.09 in 10.0 mi Calm Calm - N/A   Clear
8:54 AM 79.0 °F - 66.0 °F 64% 30.09 in 10.0 mi NE 3.5 mph - N/A   Clear
9:54 AM 82.0 °F 84.1 °F 66.0 °F 58% 30.10 in 10.0 mi ENE 6.9 mph - N/A   Clear
10:54 AM 82.9 °F 84.6 °F 64.9 °F 54% 30.12 in 10.0 mi East 5.8 mph - N/A   Clear
11:54 AM 84.9 °F 86.1 °F 64.0 °F 49% 30.12 in 10.0 mi ESE 9.2 mph - N/A   Clear
12:54 PM 84.9 °F 85.4 °F 62.1 °F 46% 30.12 in 10.0 mi ENE 6.9 mph - N/A   Mostly Cloudy
1:54 PM 87.1 °F 87.8 °F 63.0 °F 44% 30.11 in 10.0 mi SE 3.5 mph - N/A   Clear
2:54 PM 89.1 °F 89.3 °F 62.1 °F 40% 30.10 in 10.0 mi Calm Calm - N/A   Partly Cloudy
3:54 PM 87.1 °F 87.0 °F 61.0 °F 41% 30.08 in 10.0 mi NE 4.6 mph - N/A   Scattered Clouds
4:54 PM 84.0 °F 85.4 °F 64.0 °F 51% 30.06 in 10.0 mi ESE 6.9 mph - N/A   Overcast
5:54 PM 84.9 °F 86.6 °F 64.9 °F 51% 30.06 in 10.0 mi ENE 4.6 mph - N/A   Clear
6:54 PM 87.1 °F 88.3 °F 64.0 °F 46% 30.06 in 10.0 mi NE 4.6 mph - N/A   Clear
7:34 PM 82.9 °F 87.0 °F 70.0 °F 65% 30.08 in 10.0 mi Variable 5.8 mph - N/A Thunderstorm Thunderstorm
7:49 PM 80.6 °F 83.9 °F 69.8 °F 70% 30.09 in 10.0 mi SSW 10.4 mph 16.1 mph N/A   Overcast
7:54 PM 80.1 °F 82.9 °F 69.1 °F 69% 30.09 in 10.0 mi SW 9.2 mph - N/A   Overcast
8:54 PM 77.0 °F - 68.0 °F 74% 30.09 in 10.0 mi Calm Calm - N/A   Partly Cloudy
9:54 PM 78.1 °F - 70.0 °F 76% 30.11 in 10.0 mi South 3.5 mph - N/A   Clear
10:54 PM 77.0 °F - 66.9 °F 71% 30.11 in 10.0 mi South 3.5 mph - N/A   Clear
11:54 PM 73.9 °F - 66.9 °F 79% 30.12 in 10.0 mi Calm Calm - N/A   Clear